TimeCDT,TemperatureF,Dew PointF,Humidity,Sea Level PressureIn,VisibilityMPH,Wind Direction,Wind SpeedMPH,Gust SpeedMPH,PrecipitationIn,Events,Conditions,WindDirDegrees,DateUTC
12:58 AM,70.3,64.0,80,29.99,10.0,South,4.6,-,N/A,,Scattered Clouds,190,2013-04-28 05:58:00
1:58 AM,69.8,64.0,82,29.98,10.0,SW,6.9,-,N/A,,Clear,220,2013-04-28 06:58:00
2:58 AM,68.7,63.7,84,29.97,10.0,SSW,8.1,-,N/A,,Partly Cloudy,200,2013-04-28 07:58:00
3:58 AM,67.8,64.2,88,29.98,10.0,SSW,8.1,-,N/A,,Scattered Clouds,200,2013-04-28 08:58:00
4:13 AM,68.0,64.4,88,29.97,10.0,SSW,3.5,-,N/A,Rain,Light Rain,210,2013-04-28 09:13:00
4:22 AM,68.0,64.4,88,29.97,10.0,SSW,6.9,-,N/A,,Scattered Clouds,210,2013-04-28 09:22:00
4:58 AM,66.7,64.8,93,29.97,10.0,SSW,5.8,-,0.00,,Clear,210,2013-04-28 09:58:00
5:58 AM,66.6,65.7,97,29.97,10.0,SSW,5.8,-,N/A,,Clear,200,2013-04-28 10:58:00
6:44 AM,66.2,66.2,100,29.97,10.0,SW,3.5,-,N/A,Rain,Light Rain,220,2013-04-28 11:44:00
6:53 AM,66.2,66.2,100,29.97,10.0,SSW,3.5,-,N/A,,Clear,210,2013-04-28 11:53:00
6:58 AM,67.1,65.7,95,29.99,10.0,SW,4.6,-,0.00,,Clear,220,2013-04-28 11:58:00
7:58 AM,68.5,64.4,87,30.00,10.0,SW,5.8,-,N/A,,Mostly Cloudy,220,2013-04-28 12:58:00
8:19 AM,68.0,64.4,88,29.99,10.0,WSW,2.3,-,N/A,Thunderstorm,Thunderstorm,240,2013-04-28 13:19:00
8:28 AM,68.0,64.4,88,29.99,10.0,SW,3.5,-,N/A,Rain-Thunderstorm,Light Thunderstorms and Rain,220,2013-04-28 13:28:00
8:44 AM,68.0,64.4,88,29.98,10.0,SSW,5.8,-,N/A,Thunderstorm,Thunderstorm,200,2013-04-28 13:44:00
8:47 AM,68.0,64.4,88,29.98,10.0,SSW,4.6,-,N/A,,Scattered Clouds,200,2013-04-28 13:47:00
8:58 AM,68.9,64.9,87,29.98,10.0,SSW,8.1,-,0.00,,Partly Cloudy,200,2013-04-28 13:58:00
9:58 AM,69.1,63.7,83,29.97,10.0,South,9.2,-,N/A,,Partly Cloudy,190,2013-04-28 14:58:00
10:28 AM,68.0,64.4,88,29.98,10.0,West,4.6,-,N/A,,Mostly Cloudy,280,2013-04-28 15:28:00
10:43 AM,68.0,62.6,83,29.98,10.0,NNW,6.9,-,N/A,Thunderstorm,Overcast,340,2013-04-28 15:43:00
10:48 AM,66.2,59.0,78,29.99,10.0,NNW,4.6,-,N/A,Thunderstorm,Overcast,330,2013-04-28 15:48:00
10:51 AM,66.2,59.0,78,30.01,8.0,NW,13.8,-,N/A,Thunderstorm,Thunderstorm,320,2013-04-28 15:51:00
10:53 AM,66.2,59.0,78,30.01,1.5,NW,13.8,-,N/A,Rain-Thunderstorm,Heavy Thunderstorms and Rain,320,2013-04-28 15:53:00
10:54 AM,66.2,59.0,78,30.00,1.0,NW,12.7,-,N/A,Rain-Thunderstorm,Heavy Thunderstorms and Rain,320,2013-04-28 15:54:00
10:58 AM,64.4,60.8,88,30.02,0.5,WNW,5.8,-,0.19,Rain-Thunderstorm,Heavy Thunderstorms and Rain,300,2013-04-28 15:58:00
11:03 AM,62.6,60.8,94,29.98,0.2,North,1.2,-,N/A,Fog-Rain-Thunderstorm,Heavy Thunderstorms and Rain,350,2013-04-28 16:03:00
11:12 AM,62.6,60.8,94,29.99,1.0,WNW,12.7,18.4,N/A,Rain-Thunderstorm,Heavy Rain,290,2013-04-28 16:12:00
11:16 AM,62.6,60.8,94,30.01,0.8,West,16.1,19.6,N/A,Rain-Thunderstorm,Heavy Thunderstorms and Rain,260,2013-04-28 16:16:00
11:21 AM,62.6,60.8,94,30.00,0.2,WSW,8.1,20.7,N/A,Fog-Rain-Thunderstorm,Heavy Thunderstorms and Rain,250,2013-04-28 16:21:00
11:26 AM,62.6,60.8,94,30.00,0.2,SW,9.2,20.7,N/A,Fog-Rain-Thunderstorm,Heavy Thunderstorms and Rain,230,2013-04-28 16:26:00
11:31 AM,62.6,60.8,94,30.00,0.8,West,10.4,-,N/A,Rain-Thunderstorm,Heavy Rain,260,2013-04-28 16:31:00
11:36 AM,62.6,60.8,94,30.00,1.8,West,8.1,-,N/A,Rain-Thunderstorm,Rain,260,2013-04-28 16:36:00
11:38 AM,62.6,60.8,94,29.99,1.8,West,5.8,-,N/A,Rain-Thunderstorm,Thunderstorms and Rain,270,2013-04-28 16:38:00
11:43 AM,62.6,60.8,94,29.99,1.0,West,3.5,-,N/A,Rain-Thunderstorm,Heavy Thunderstorms and Rain,280,2013-04-28 16:43:00
11:48 AM,62.6,60.8,94,29.99,1.2,Calm,Calm,-,N/A,Rain-Thunderstorm,Thunderstorms and Rain,0,2013-04-28 16:48:00
11:53 AM,60.8,60.8,100,29.99,1.8,Calm,Calm,-,N/A,Rain-Thunderstorm,Thunderstorms and Rain,0,2013-04-28 16:53:00
11:58 AM,61.5,61.0,98,30.01,2.0,West,3.5,-,1.01,Rain-Thunderstorm,Light Thunderstorms and Rain,280,2013-04-28 16:58:00
12:03 PM,60.8,60.8,100,29.99,3.0,Calm,Calm,-,N/A,Rain-Thunderstorm,Light Thunderstorms and Rain,360,2013-04-28 17:03:00
12:08 PM,62.6,60.8,94,30.00,4.0,NNW,1.2,-,N/A,Rain-Thunderstorm,Thunderstorms and Rain,330,2013-04-28 17:08:00
12:09 PM,62.6,60.8,94,30.01,3.0,West,2.3,-,N/A,Rain,Rain,280,2013-04-28 17:09:00
12:19 PM,60.8,60.8,100,29.99,4.0,West,10.4,-,N/A,Rain,Rain,270,2013-04-28 17:19:00
12:24 PM,60.8,59.0,94,29.99,3.0,West,5.8,-,N/A,Rain,Rain,280,2013-04-28 17:24:00
12:29 PM,60.8,59.0,94,29.99,4.0,West,8.1,-,N/A,Rain-Thunderstorm,Rain,280,2013-04-28 17:29:00
12:30 PM,60.8,59.0,94,29.99,4.0,West,8.1,-,N/A,Rain-Thunderstorm,Rain,270,2013-04-28 17:30:00
12:35 PM,60.8,59.0,94,29.98,6.0,West,6.9,-,N/A,Rain-Thunderstorm,Rain,270,2013-04-28 17:35:00
12:38 PM,60.8,59.0,94,29.97,6.0,WSW,3.5,-,N/A,Rain-Thunderstorm,Rain,250,2013-04-28 17:38:00
12:43 PM,60.8,59.0,94,29.98,4.0,SW,4.6,-,N/A,Rain,Light Rain,230,2013-04-28 17:43:00
12:53 PM,60.8,60.8,100,29.96,7.0,NW,5.8,-,N/A,Rain,Light Rain,320,2013-04-28 17:53:00
12:58 PM,61.2,59.9,96,29.97,8.0,NNW,5.8,-,0.16,Rain,Rain,330,2013-04-28 17:58:00
1:15 PM,62.6,60.8,94,29.95,9.0,NW,5.8,-,N/A,Rain,Light Rain,320,2013-04-28 18:15:00
1:25 PM,62.6,62.6,100,29.95,10.0,NNW,4.6,-,N/A,Rain,Light Rain,340,2013-04-28 18:25:00
1:27 PM,62.6,62.6,100,29.95,10.0,NNW,4.6,-,N/A,,Overcast,340,2013-04-28 18:27:00
1:28 PM,62.6,62.6,100,29.96,10.0,NNW,4.6,-,N/A,,Mostly Cloudy,340,2013-04-28 18:28:00
1:32 PM,62.6,62.6,100,29.96,10.0,Calm,Calm,-,N/A,,Mostly Cloudy,310,2013-04-28 18:32:00
1:37 PM,62.6,62.6,100,29.97,10.0,Calm,Calm,-,N/A,,Mostly Cloudy,350,2013-04-28 18:37:00
1:42 PM,62.6,62.6,100,29.96,10.0,Calm,Calm,-,N/A,,Overcast,0,2013-04-28 18:42:00
1:58 PM,62.2,62.2,100,29.97,10.0,WSW,2.3,-,0.02,,Mostly Cloudy,240,2013-04-28 18:58:00
2:06 PM,62.6,62.6,100,29.98,10.0,Calm,Calm,-,N/A,Thunderstorm,Thunderstorm,0,2013-04-28 19:06:00
2:16 PM,62.6,62.6,100,29.98,10.0,SSE,4.6,-,N/A,Thunderstorm,Thunderstorm,150,2013-04-28 19:16:00
2:21 PM,62.6,62.6,100,29.99,10.0,SSE,4.6,-,N/A,,Overcast,160,2013-04-28 19:21:00
2:41 PM,62.6,62.6,100,29.99,10.0,SSE,6.9,-,N/A,,Overcast,150,2013-04-28 19:41:00
2:56 PM,62.6,62.6,100,29.99,10.0,SSE,8.1,-,N/A,,Overcast,150,2013-04-28 19:56:00
2:58 PM,61.9,61.9,100,30.00,10.0,SSE,6.9,-,N/A,,Overcast,160,2013-04-28 19:58:00
3:03 PM,62.6,62.6,100,29.99,10.0,SSE,9.2,-,N/A,,Overcast,150,2013-04-28 20:03:00
3:18 PM,60.8,60.8,100,29.99,10.0,SSE,10.4,-,N/A,,Overcast,150,2013-04-28 20:18:00
3:41 PM,62.6,60.8,94,29.99,10.0,SSE,5.8,-,N/A,,Overcast,160,2013-04-28 20:41:00
3:43 PM,62.6,60.8,94,29.99,10.0,South,5.8,-,N/A,,Overcast,170,2013-04-28 20:43:00
3:58 PM,61.9,61.0,97,29.99,10.0,South,5.8,-,N/A,,Overcast,170,2013-04-28 20:58:00
4:01 PM,62.6,60.8,94,29.98,10.0,SSE,5.8,-,N/A,,Overcast,160,2013-04-28 21:01:00
4:03 PM,62.6,60.8,94,29.98,10.0,SSE,5.8,-,N/A,,Overcast,160,2013-04-28 21:03:00
4:18 PM,62.6,60.8,94,29.98,10.0,SSE,5.8,-,N/A,,Overcast,160,2013-04-28 21:18:00
4:53 PM,62.6,60.8,94,29.98,10.0,South,4.6,-,N/A,,Mostly Cloudy,180,2013-04-28 21:53:00
4:58 PM,62.6,60.8,94,29.99,10.0,South,5.8,-,N/A,,Scattered Clouds,180,2013-04-28 21:58:00
5:58 PM,62.8,61.7,96,29.97,10.0,South,3.5,-,N/A,,Partly Cloudy,190,2013-04-28 22:58:00
6:23 PM,62.6,62.6,100,29.95,10.0,SSE,1.2,-,N/A,,Mostly Cloudy,150,2013-04-28 23:23:00
6:58 PM,63.5,62.2,96,29.96,10.0,South,3.5,-,N/A,,Overcast,170,2013-04-28 23:58:00
7:18 PM,64.4,62.6,94,29.95,10.0,South,5.8,-,N/A,,Overcast,170,2013-04-29 00:18:00
7:33 PM,62.6,62.6,100,29.95,10.0,SSE,2.3,-,N/A,,Overcast,150,2013-04-29 00:33:00
7:58 PM,62.1,61.9,99,29.96,10.0,SSE,2.3,-,N/A,,Overcast,160,2013-04-29 00:58:00
8:03 PM,62.6,62.6,100,29.95,10.0,South,3.5,-,N/A,,Overcast,170,2013-04-29 01:03:00
8:13 PM,62.6,62.6,100,29.95,10.0,South,5.8,-,N/A,,Overcast,170,2013-04-29 01:13:00
8:23 PM,62.6,62.6,100,29.95,10.0,South,6.9,-,N/A,,Overcast,170,2013-04-29 01:23:00
8:38 PM,60.8,60.8,100,29.96,10.0,South,5.8,-,N/A,,Overcast,170,2013-04-29 01:38:00
8:58 PM,61.7,61.7,100,29.97,10.0,SSE,3.5,-,N/A,,Overcast,160,2013-04-29 01:58:00
9:23 PM,60.8,60.8,100,29.96,10.0,SE,4.6,-,N/A,,Mostly Cloudy,140,2013-04-29 02:23:00
9:33 PM,60.8,60.8,100,29.97,10.0,SSE,4.6,-,N/A,,Mostly Cloudy,150,2013-04-29 02:33:00
9:53 PM,60.8,60.8,100,29.98,10.0,South,1.2,-,N/A,,Mostly Cloudy,180,2013-04-29 02:53:00
9:58 PM,61.0,61.0,100,29.99,10.0,South,4.6,-,N/A,,Overcast,180,2013-04-29 02:58:00
10:58 PM,61.5,61.5,100,29.99,10.0,SSW,3.5,-,N/A,,Overcast,210,2013-04-29 03:58:00
11:58 PM,61.0,61.0,100,29.99,10.0,SSW,5.8,-,N/A,,Overcast,200,2013-04-29 04:58:00